Terminal Aerodrome Forecast
Issued by NWS

Home | Current Version | Previous Version | Text Only | Print | Product List | Glossary On
Versions: 1 2 3 4 5 6 7 8 9 10 11 12 13 14 15 16 17 18 19 20 21 22 23 24 25 26 27 28 29 30 31
000
FTUS42 KCAE 022338
TAFOGB
TAF
KOGB 022338Z 0300/0324 VRB03KT P6SM SCT050 BKN250
     FM030900 00000KT 3SM BR BKN250
     FM031400 VRB04KT P6SM BKN250=

USA.gov is the U.S. government's official web portal to all federal, state and local government web resources and services.